• In Hungary
  • List of Countries
  • For 7 days
  • Water Temperature
  • Satellite Maps
  • Weather Map
  • News
  • Weather Widgets
  • user-avatar
    Login

    Hourly Weather Balho

    Today, 22 September, Saturday

    Time Temperature Precipitation Wind Pressure Humidity
    00:00 +37°C° 0 mm 2 mps 733 mmHg 39%
    01:00 +37°C° 0 mm 2 mps 733 mmHg 41%
    02:00 +36°C° 0 mm 2 mps 733 mmHg 42%
    03:00 +35°C° 0 mm 1 mps 733 mmHg 43%
    04:00 +35°C° 0 mm 2 mps 733 mmHg 46%
    05:00 +35°C° 0 mm 2 mps 734 mmHg 48%
    06:00 +34°C° 0 mm 2 mps 734 mmHg 50%
    07:00 +35°C° 0 mm 2 mps 734 mmHg 47%
    08:00 +36°C° 0 mm 2 mps 735 mmHg 44%
    09:00 +35°C° 0 mm 1 mps 735 mmHg 42%
    10:00 +36°C° 0 mm 1 mps 735 mmHg 38%
    11:00 +37°C° 0 mm 1 mps 735 mmHg 35%
    12:00 +39°C° 0 mm 1 mps 735 mmHg 31%
    13:00 +40°C° 0 mm 1 mps 734 mmHg 29%
    14:00 +40°C° 0 mm 1 mps 734 mmHg 27%
    15:00 +41°C° 0 mm 1 mps 733 mmHg 25%
    16:00 +41°C° 0 mm 1 mps 733 mmHg 26%
    17:00 +41°C° 0 mm 2 mps 733 mmHg 27%
    18:00 +40°C° 0 mm 2 mps 733 mmHg 28%
    19:00 +39°C° 0 mm 3 mps 733 mmHg 33%
    20:00 +40°C° 0 mm 4 mps 733 mmHg 38%
    21:00 +38°C° 0 mm 4 mps 734 mmHg 43%
    22:00 +37°C° 0 mm 4 mps 734 mmHg 45%
    23:00 +37°C° 0 mm 4 mps 734 mmHg 47%

    Tomorrow, 23 September, Sunday

    Time Temperature Precipitation Wind Pressure Humidity
    00:00 +36°C° 0 mm 3 mps 735 mmHg 50%
    01:00 +36°C° 0 mm 3 mps 734 mmHg 51%
    02:00 +35°C° 0 mm 3 mps 734 mmHg 52%
    03:00 +35°C° 0 mm 2 mps 734 mmHg 53%
    04:00 +34°C° 0 mm 2 mps 734 mmHg 54%
    05:00 +34°C° 0 mm 2 mps 735 mmHg 55%
    06:00 +33°C° 0 mm 1 mps 735 mmHg 55%
    07:00 +34°C° 0 mm 1 mps 735 mmHg 51%
    08:00 +35°C° 0 mm 1 mps 736 mmHg 47%
    09:00 +35°C° 0 mm 1 mps 736 mmHg 43%
    10:00 +37°C° 0 mm 1 mps 736 mmHg 37%
    11:00 +39°C° 0 mm 1 mps 736 mmHg 32%
    12:00 +37°C° 0 mm 0 mps 736 mmHg 27%
    13:00 +41°C° 0 mm 1 mps 735 mmHg 24%
    14:00 +41°C° 0 mm 1 mps 734 mmHg 22%
    15:00 +42°C° 0 mm 1 mps 733 mmHg 19%
    16:00 +42°C° 0 mm 1 mps 733 mmHg 19%
    17:00 +42°C° 0 mm 2 mps 733 mmHg 19%
    18:00 +42°C° 0 mm 2 mps 733 mmHg 19%
    19:00 +42°C° 0 mm 3 mps 733 mmHg 22%
    20:00 +40°C° 0 mm 3 mps 734 mmHg 26%
    21:00 +39°C° 0 mm 3 mps 734 mmHg 29%
    22:00 +39°C° 0 mm 3 mps 734 mmHg 32%
    23:00 +38°C° 0 mm 2 mps 734 mmHg 35%

    Day after tomorrow, 24 September, Monday

    Time Temperature Precipitation Wind Pressure Humidity
    00:00 +37°C° 0 mm 2 mps 734 mmHg 38%
    01:00 +37°C° 0 mm 2 mps 734 mmHg 39%
    02:00 +36°C° 0 mm 2 mps 733 mmHg 40%
    03:00 +35°C° 0 mm 1 mps 733 mmHg 41%
    04:00 +34°C° 0 mm 1 mps 733 mmHg 41%
    05:00 +34°C° 0 mm 1 mps 733 mmHg 41%
    06:00 +34°C° 0 mm 1 mps 734 mmHg 41%
    07:00 +35°C° 0 mm 1 mps 734 mmHg 37%
    08:00 +36°C° 0 mm 1 mps 735 mmHg 33%
    09:00 +37°C° 0 mm 1 mps 735 mmHg 29%
    10:00 +39°C° 0 mm 1 mps 735 mmHg 27%
    11:00 +40°C° 0 mm 1 mps 735 mmHg 25%
    12:00 +41°C° 0 mm 1 mps 735 mmHg 23%
    13:00 +41°C° 0 mm 1 mps 734 mmHg 23%
    14:00 +41°C° 0 mm 1 mps 733 mmHg 22%
    15:00 +41°C° 0 mm 1 mps 732 mmHg 22%
    16:00 +41°C° 0 mm 2 mps 732 mmHg 23%
    17:00 +41°C° 0 mm 2 mps 732 mmHg 24%
    18:00 +41°C° 0 mm 2 mps 732 mmHg 24%
    19:00 +40°C° 0.1 mm 2 mps 733 mmHg 26%
    20:00 +39°C° 0.1 mm 3 mps 733 mmHg 28%
    21:00 +39°C° 0.1 mm 3 mps 734 mmHg 30%
    22:00 +38°C° 0.1 mm 3 mps 734 mmHg 31%
    23:00 +38°C° 0.1 mm 3 mps 733 mmHg 32%

    25 September, Tuesday

    Time Temperature Precipitation Wind Pressure Humidity
    00:00 +37°C° 0.1 mm 2 mps 733 mmHg 33%
    01:00 +37°C° 0.2 mm 2 mps 733 mmHg 34%
    02:00 +36°C° 0.2 mm 2 mps 733 mmHg 35%
    03:00 +36°C° 0.2 mm 2 mps 732 mmHg 36%
    04:00 +35°C° 0.1 mm 2 mps 733 mmHg 38%
    05:00 +35°C° 0.1 mm 2 mps 733 mmHg 39%
    06:00 +34°C° 0.1 mm 2 mps 733 mmHg 41%
    07:00 +35°C° 0 mm 3 mps 734 mmHg 39%
    08:00 +36°C° 0 mm 3 mps 735 mmHg 37%
    09:00 +37°C° 0 mm 3 mps 735 mmHg 35%
    10:00 +38°C° 0 mm 3 mps 735 mmHg 32%
    11:00 +39°C° 0 mm 3 mps 734 mmHg 29%
    12:00 +40°C° 0 mm 3 mps 734 mmHg 27%
    13:00 +40°C° 0 mm 2 mps 733 mmHg 26%
    14:00 +40°C° 0 mm 2 mps 732 mmHg 25%
    15:00 +41°C° 0 mm 2 mps 732 mmHg 24%
    16:00 +41°C° 0 mm 2 mps 732 mmHg 25%
    17:00 +41°C° 0 mm 2 mps 732 mmHg 25%
    18:00 +41°C° 0 mm 2 mps 732 mmHg 25%
    19:00 +40°C° 0 mm 3 mps 733 mmHg 28%
    20:00 +39°C° 0 mm 3 mps 733 mmHg 30%
    21:00 +39°C° 0 mm 3 mps 734 mmHg 33%
    22:00 +38°C° 0 mm 3 mps 733 mmHg 36%
    23:00 +37°C° 0 mm 3 mps 733 mmHg 39%

    26 September, Wednesday

    Time Temperature Precipitation Wind Pressure Humidity
    00:00 +37°C° 0 mm 3 mps 733 mmHg 42%
    01:00 +36°C° 0 mm 3 mps 733 mmHg 43%
    02:00 +36°C° 0 mm 3 mps 732 mmHg 45%
    03:00 +35°C° 0 mm 3 mps 732 mmHg 46%
    04:00 +35°C° 0 mm 3 mps 733 mmHg 48%
    05:00 +34°C° 0 mm 3 mps 733 mmHg 49%
    06:00 +34°C° 0 mm 3 mps 733 mmHg 51%
    07:00 +35°C° 0 mm 3 mps 734 mmHg 49%
    08:00 +35°C° 0 mm 3 mps 735 mmHg 48%
    09:00 +36°C° 0 mm 3 mps 735 mmHg 46%
    10:00 +37°C° 0.1 mm 3 mps 735 mmHg 41%
    11:00 +38°C° 0.1 mm 3 mps 734 mmHg 37%
    12:00 +39°C° 0.1 mm 2 mps 734 mmHg 32%
    13:00 +40°C° 0 mm 2 mps 733 mmHg 30%
    14:00 +40°C° 0 mm 2 mps 732 mmHg 28%
    15:00 +41°C° 0 mm 1 mps 732 mmHg 26%
    16:00 +41°C° 0 mm 1 mps 732 mmHg 26%
    17:00 +41°C° 0 mm 1 mps 732 mmHg 26%
    18:00 +41°C° 0 mm 1 mps 732 mmHg 26%
    19:00 +40°C° 0 mm 2 mps 732 mmHg 28%
    20:00 +40°C° 0 mm 2 mps 733 mmHg 30%
    21:00 +39°C° 0 mm 3 mps 733 mmHg 32%
    22:00 +39°C° 0 mm 3 mps 733 mmHg 36%
    23:00 +38°C° 0 mm 3 mps 733 mmHg 40%

    27 September, Thursday

    Time Temperature Precipitation Wind Pressure Humidity
    00:00 +37°C° 0 mm 3 mps 733 mmHg 44%
    01:00 +37°C° 0 mm 2 mps 733 mmHg 46%
    02:00 +36°C° 0 mm 2 mps 733 mmHg 48%
    03:00 +36°C° 0 mm 2 mps 733 mmHg 50%
    04:00 +35°C° 0 mm 2 mps 733 mmHg 51%
    05:00 +35°C° 0 mm 2 mps 734 mmHg 52%
    06:00 +35°C° 0 mm 2 mps 734 mmHg 53%
    07:00 +35°C° 0 mm 2 mps 735 mmHg 51%
    08:00 +36°C° 0 mm 2 mps 735 mmHg 48%
    09:00 +36°C° 0 mm 2 mps 736 mmHg 46%
    10:00 +37°C° 0 mm 2 mps 735 mmHg 42%
    11:00 +38°C° 0 mm 2 mps 735 mmHg 38%
    12:00 +39°C° 0 mm 2 mps 734 mmHg 34%
    13:00 +40°C° 0 mm 1 mps 733 mmHg 32%
    14:00 +40°C° 0 mm 1 mps 733 mmHg 30%
    15:00 +41°C° 0 mm 1 mps 732 mmHg 28%
    16:00 +41°C° 0 mm 1 mps 732 mmHg 28%
    17:00 +41°C° 0 mm 2 mps 732 mmHg 29%
    18:00 +41°C° 0 mm 2 mps 732 mmHg 29%
    19:00 +40°C° 0 mm 2 mps 733 mmHg 31%
    20:00 +40°C° 0 mm 2 mps 733 mmHg 33%
    21:00 +39°C° 0 mm 2 mps 734 mmHg 35%
    22:00 +39°C° 0 mm 2 mps 734 mmHg 38%
    23:00 +38°C° 0 mm 3 mps 733 mmHg 42%
    Show more